Change the Weather History Date:

Thursday, August 1, 2013

  Actual Average Record
Temperature  
Mean Temperature 68 °F -  
Max Temperature 81 °F 79 °F 91 °F (2001)
Min Temperature 57 °F 59 °F 50 °F (1998)
Cooling Degree Days 4    
Growing Degree Days 18 (Base 50)    
Moisture  
Dew Point 58 °F    
Average Humidity 76    
Maximum Humidity 100    
Minimum Humidity 39    
Precipitation  
Precipitation 0.23 in - - ()
Sea Level Pressure  
Sea Level Pressure 29.97 in    
Wind  
Wind Speed 4 mph (WNW)    
Max Wind Speed 16 mph    
Max Gust Speed 22 mph    
Visibility 7 miles    
Events Fog , Rain    
Averages and records for this station are not official NWS values.
T = Trace of Precipitation, MM = Missing Value Source: NWS Daily Summary

Daily Weather History Graph

Daily Weather History Graph

Search for Another Location

Airport or City:

Trip Planner

Search our weather history database for the weather conditions in past years. The results will help you decide how hot, cold, wet, or windy it might be!

Date:

Astronomy

Aug. 01, 2013 Rise Set
Actual Time 5:51 AM CDT 8:22 PM CDT
Civil Twilight 5:18 AM CDT 8:54 PM CDT
Nautical Twilight 4:38 AM CDT 9:34 PM CDT
Astronomical Twilight 3:52 AM CDT 10:19 PM CDT
Moon 1:26 AM CDT (8/1) 4:32 PM CDT (8/1)
Length of Visible Light 15h 35m
Length of Day
14h 30m
Waning Crescent, 23% of the Moon is Illuminated
Aug 1
Waning Crescent
Aug 6
New
Aug 14
First Quarter
Aug 20
Full
Aug 28
Last Quarter

Hourly Weather History & Observations

Time (CDT) Temp. Heat Index Dew Point Humidity Pressure Visibility Wind Dir Wind Speed Gust Speed Precip Events Conditions
12:52 AM 60.8 °F - 59.0 °F 94% 30.00 in 3.0 mi Calm Calm - N/A   Scattered Clouds
12:54 AM 60.8 °F - 59.0 °F 94% 30.00 in 1.8 mi Calm Calm - N/A   Scattered Clouds
12:56 AM 60.1 °F - 59.0 °F 96% 29.98 in 1.2 mi Calm Calm - N/A   Scattered Clouds
1:00 AM 60.8 °F - 57.2 °F 88% 30.00 in 0.8 mi Calm Calm - N/A   Mist
1:10 AM 59.0 °F - 57.2 °F 94% 30.00 in 1.2 mi Calm Calm - N/A   Mostly Cloudy
1:21 AM 57.2 °F - 57.2 °F 100% 30.00 in 0.5 mi West 3.5 mph - N/A Fog Fog
1:27 AM 60.8 °F - 57.2 °F 88% 30.00 in 2.0 mi West 4.6 mph - N/A   Mostly Cloudy
1:30 AM 60.8 °F - 59.0 °F 94% 30.00 in 4.0 mi West 4.6 mph - N/A   Scattered Clouds
1:56 AM 62.1 °F - 60.1 °F 93% 29.97 in 6.0 mi West 5.8 mph - N/A   Partly Cloudy
2:56 AM 62.1 °F - 60.1 °F 93% 29.98 in 8.0 mi West 6.9 mph - N/A   Scattered Clouds
3:56 AM 62.1 °F - 60.1 °F 93% 29.97 in 9.0 mi West 6.9 mph - N/A   Clear
4:56 AM 59.0 °F - 57.0 °F 93% 29.97 in 8.0 mi Calm Calm - N/A   Clear
5:56 AM 57.0 °F - 55.0 °F 93% 29.98 in 7.0 mi WNW 4.6 mph - N/A   Clear
6:56 AM 60.1 °F - 57.9 °F 93% 29.99 in 8.0 mi West 4.6 mph - 0.01 in   Clear
7:56 AM 63.0 °F - 59.0 °F 87% 30.00 in 10.0 mi West 6.9 mph - N/A   Clear
8:56 AM 66.9 °F - 57.0 °F 70% 30.01 in 10.0 mi NW 9.2 mph - N/A   Clear
9:56 AM 71.1 °F - 55.0 °F 57% 30.01 in 10.0 mi NNW 8.1 mph - N/A   Clear
10:56 AM 73.9 °F - 54.0 °F 50% 30.01 in 10.0 mi Variable 6.9 mph - N/A   Clear
11:56 AM 75.9 °F - 54.0 °F 46% 30.01 in 10.0 mi WNW 10.4 mph - N/A   Clear
12:56 PM 78.1 °F - 53.1 °F 42% 30.00 in 10.0 mi West 11.5 mph - N/A   Partly Cloudy
1:56 PM 79.0 °F - 53.1 °F 40% 29.99 in 10.0 mi WNW 10.4 mph - N/A   Partly Cloudy
2:56 PM 79.0 °F - 52.0 °F 39% 29.97 in 10.0 mi WNW 16.1 mph 21.9 mph N/A   Partly Cloudy
3:56 PM 80.1 °F 79.9 °F 53.1 °F 39% 29.95 in 10.0 mi NNW 6.9 mph - N/A   Clear
4:56 PM 79.0 °F - 53.1 °F 40% 29.94 in 10.0 mi West 9.2 mph - N/A   Scattered Clouds
5:56 PM 79.0 °F - 55.0 °F 44% 29.93 in 10.0 mi West 6.9 mph - N/A   Scattered Clouds
6:56 PM 77.0 °F - 57.9 °F 52% 29.93 in 10.0 mi Calm Calm - N/A   Overcast
7:56 PM 73.0 °F - 64.0 °F 73% 29.91 in 10.0 mi Calm Calm - N/A   Clear
8:56 PM 66.0 °F - 61.0 °F 84% 29.92 in 10.0 mi ENE 3.5 mph - N/A   Partly Cloudy
9:56 PM 64.9 °F - 60.1 °F 84% 29.91 in 10.0 mi East 3.5 mph - N/A   Scattered Clouds
10:56 PM 64.0 °F - 60.1 °F 87% 29.91 in 10.0 mi Calm Calm - N/A   Scattered Clouds
11:24 PM 66.2 °F - 60.8 °F 83% 29.93 in 1.8 mi SW 3.5 mph - 0.07 in Rain Heavy Rain
11:47 PM 64.4 °F - 62.6 °F 94% 29.92 in 3.0 mi Calm Calm - 0.22 in Rain Rain
11:56 PM 64.0 °F - 62.1 °F 93% 29.89 in 5.0 mi East 3.5 mph - 0.22 in Rain Light Rain